Lid_Strength_Index
2 2 2 2 2 3 4 6 10 5 4 8 7 9 8 8 7 6 7 7 8 8 9 11 11 11 9 8 6 7 6 7 9 8 6 5 6 7 7 10 11 9 9 9
2 2 2 2 2 4 5 8 8 4 5 11 10 8 9 8 8 8 7 8 7 7 9 12 11 10 8 8 8 7 6 8 10 9 7 6 7 6 6 7 7 10 11 9
3 2 2 2 3 4 5 8 10 7 5 6 9 9 7 7 5 6 6 6 6 7 9 8 11 11 10 9 9 6 6 7 8 10 9 7 8 7 7 7 9 9 9 8
2 2 3 3 3 4 5 6 9 8 10 8 7 6 7 8 10 7 7 7 7 8 9 9 11 11 10 9 7 7 6 9 7 7 7 7 7 8 7 8 7 9 8 8
2 3 3 3 3 4 6 9 9 6 8 7 6 6 9 10 9 9 10 10 8 7 8 7 9 11 10 10 9 8 6 9 7 8 7 7 8 7 7 7 7 7 7 7
4 3 3 3 3 4 7 6 5 6 8 7 7 7 7 8 8 7 7 8 8 8 7 6 7 8 9 9 10 9 8 8 9 10 7 8 9 8 7 7 6 6 8 6
4 4 3 3 3 4 5 5 6 8 9 7 7 6 6 7 7 8 7 6 8 5 3 4 5 8 8 8 9 8 9 9 8 10 8 12 7 5 5 6 6 5 5 5
4 4 4 3 3 3 5 5 7 8 9 6 6 6 6 5 5 7 7 6 4 3 5 8 8 10 9 9 9 9 8 8 10 11 10 8 7 7 7 7 7 6 6 5
3 3 4 4 3 3 4 5 4 6 9 7 5 6 6 7 8 7 6 4 3 3 6 8 11 12 11 11 10 8 8 8 10 9 11 13 9 7 6 6 10 7 7 7
4 3 4 4 3 3 4 5 4 6 8 5 4 6 6 5 7 8 7 6 5 4 7 9 9 11 9 11 11 11 10 9 11 10 10 11 8 6 5 10 10 6 6 6
4 4 4 4 3 3 4 5 4 6 8 6 3 3 5 5 5 9 7 7 7 6 9 9 9 10 10 10 10 10 10 11 11 10 10 14 6 6 9 7 5 5 5 5
4 4 4 3 3 3 3 6 5 4 7 6 2 1 1 2 3 5 6 7 6 7 8 7 7 10 9 11 12 7 11 9 11 11 11 7 7 7 6 5 6 5 5 4
4 4 4 3 3 3 3 6 6 6 7 6 4 3 1 -0 1 1 6 4 4 5 5 7 7 10 8 12 10 9 8 7 9 8 7 8 7 7 6 6 6 5 5 4
4 4 4 4 4 4 4 6 6 5 7 9 6 2 2 -0 -0 1 2 3 2 3 4 7 7 9 7 10 10 10 8 7 9 8 7 6 6 7 7 7 6 7 6 6
4 4 4 4 4 4 4 4 5 4 7 9 8 3 2 0 1 1 1 2 3 4 5 7 8 7 9 7 8 8 7 9 9 9 8 7 7 7 7 8 8 7 8 8
4 4 4 4 4 4 5 7 5 4 4 8 9 4 4 2 1 2 2 2 2 3 5 6 5 7 8 10 9 8 7 7 8 10 9 8 8 8 7 8 7 8 9 8
4 4 4 4 4 3 6 7 5 4 5 9 10 8 4 4 2 1 2 2 2 3 4 4 6 6 7 8 10 9 8 9 9 9 10 11 10 10 9 8 8 8 8 8
4 4 4 4 5 5 6 4 4 4 7 8 11 9 7 4 7 7 3 3 3 3 5 4 6 5 5 9 7 7 7 8 8 9 9 9 9 8 9 8 8 8 9 9
4 4 4 4 4 6 6 4 5 5 8 11 11 12 12 6 8 7 6 4 6 4 5 4 5 5 7 6 6 5 5 6 6 6 7 8 9 8 8 9 8 8 9 9
4 4 6 8 5 4 4 6 8 9 10 10 12 10 12 9 9 9 9 8 10 11 9 7 10 9 7 6 5 5 4 4 4 5 6 6 7 8 8 8 8 8 8 8
3 5 7 5 4 6 8 10 11 11 12 11 11 11 12 8 11 10 8 10 11 13 11 12 12 13 10 8 6 4 4 4 3 3 3 4 4 6 8 8 8 8 8 8
3 3 4 4 7 7 8 9 10 11 11 9 10 10 9 9 8 10 8 11 11 14 10 12 13 11 9 8 8 6 5 4 4 3 4 4 4 4 5 7 8 8 7 7
2 4 6 6 6 11 14 15 14 13 8 7 7 9 8 8 8 9 9 12 12 9 11 13 11 8 6 7 8 8 7 5 4 4 4 4 5 4 5 6 6 7 7 7
5 6 12 7 9 8 7 8 8 6 5 6 5 7 8 8 9 9 12 10 10 14 15 14 9 6 5 5 5 6 8 7 6 6 4 4 5 5 5 5 5 6 7 6
5 5 11 8 5 4 4 4 5 4 3 4 6 6 6 8 10 10 10 13 14 13 14 9 6 5 5 6 5 6 7 7 7 6 6 4 4 4 3 3 4 4 5 5
4 5 6 5 5 6 5 5 5 3 3 4 5 8 9 9 8 10 13 14 14 11 8 7 6 6 6 6 5 5 6 6 7 7 6 4 3 3 2 2 2 3 3 4
5 6 4 5 4 6 5 4 4 2 5 7 6 9 10 6 9 12 10 12 9 7 6 6 5 6 5 6 6 6 6 7 7 7 6 5 4 3 3 3 2 2 2 3